Regional Weather Roundup
Issued by NWS Cleveland, OH

Home | Current Version | Previous Version | Graphics & Text | Print | Product List | Glossary On
Versions: 1 2 3 4 5 6 7 8 9 10 11 12 13 14 15 16 17 18 19 20 21 22 23 24 25 26 27 28 29 30 31 32 33 34 35 36 37 38 39 40 41 42 43 44 45 46 47 48 49 50
000
ASUS41 KCLE 202010
RWRCLE
OHIO REGIONAL WEATHER ROUNDUP
NATIONAL WEATHER SERVICE WILMINGTON, OH
400 PM EDT SUN APR 20 2014

NOTE: "FAIR" INDICATES FEW OR NO CLOUDS BELOW 12,000 FEET WITH NO
SIGNIFICANT WEATHER AND/OR OBSTRUCTIONS TO VISIBILITY.

OHZ001>008-015>018-024>027-034-035-043-044-202100-
   NORTHWEST OHIO

CITY           SKY/WX    TMP DP  RH WIND       PRES   REMARKS
DEFIANCE       MOSUNNY   73  31  21 S13       30.18F
FINDLAY        MOSUNNY   72  32  23 SE10      30.18F
TOLEDO EXPRESS MOSUNNY   73  26  17 S8G17     30.18F
TOLEDO METCALF MOSUNNY   72  40  31 E3        30.19F
LIMA           MOSUNNY   73  33  23 SE10      30.18F
$$

OHZ009>014-019>023-028>033-038-089-202100-
   NORTHEAST OHIO

CITY           SKY/WX    TMP DP  RH WIND       PRES   REMARKS
CLE-HOPKINS    PTSUNNY   74  30  19 SE12      30.22F
CLE-LAKEFRONT  PTSUNNY   60  41  49 N8        30.19F
CUY CO. ARPT   PTSUNNY   72  32  23 S12       30.23F
LORAIN-ELYRIA  MOSUNNY   75  34  22 S13       30.20F
ASHTABULA      MOSUNNY   71  27  19 S9        30.24F
AKRON-CANTON   PTSUNNY   73  28  19 SE8       30.22F
WOOSTER        MOSUNNY   71  30  21 S13       30.22F
MANSFIELD      MOSUNNY   72  36  26 S9        30.21F
YOUNGSTOWN     PTSUNNY   72  20  14 S12       30.23F
$$

OHZ042-051>053-060>062-070>072-077>081-202100-
  SOUTHWEST OHIO

CITY           SKY/WX    TMP DP  RH WIND       PRES   REMARKS
CINC-COVINGTON MOSUNNY   75  35  23 CALM      30.17F
CINC-LUNKEN    SUNNY     74  41  30 S7        30.17F
HAMILTON       SUNNY     77  34  21 CALM      30.18F
DAYTON         PTSUNNY   74  34  23 S6        30.19F
WRIGHT-PAT AFB MOSUNNY   74  37  25 S10       30.18F
DAYTON GENERAL SUNNY     73  38  27 VRB6      30.18F
WILMINGTON     SUNNY     73  39  29 VRB3      30.18F
$$

OHZ036-037-039>041-045>050-054>059-063>069-073>076-082>088-202100-
  CENTRAL AND SOUTHEAST OHIO

CITY           SKY/WX    TMP DP  RH WIND       PRES   REMARKS
COLUMBUS       PTSUNNY   76  37  24 SE6       30.18F
OSU AIRPORT    MOSUNNY   73  40  30 S13       30.19F
BOLTON FIELD   SUNNY     72  43  35 SE7       30.20F
RICKENBACK AFB SUNNY     77  29  17 S6        30.18F
NEWARK         MOSUNNY   75  31  19 VRB5      30.18F
MARION         CLOUDY    72  38  29 S13G20    30.21F
LANCASTER      MOSUNNY   75  37  25 E7        30.18F
ZANESVILLE     SUNNY     75  28  17 SE7       30.19F
NEW PHILLY     SUNNY     72  21  14 S5        30.21F
$$



USA.gov is the U.S. government's official web portal to all federal, state and local government web resources and services.